Погода в Жердевке

Погода в Жердевке : погода сейчас, прогноз погоды и архив. Всё, что Вы хотите узнать о погоде в Жердевке!

Хотите узнать прогноз погоды в Жердевке? Тогда Вам сюда: Погода в Жердевке

Поиск расширенной информации на нашем сайте:

Другие новости

Новости СМИ2

Главная страница сайта

Новости сайта

02.10.2013

Напоминаем, что на нашем новом сайте вы можете получить высокодетализированные прогнозы погоды по пунктам России, СНГ и мира (включающие важные для авиации метеовеличины, такие как направление и скорость ветра, видимость, явления погоды, количество и форма облачности, нижняя и верхняя граница облачности), а также ознакомиться с разнообразными материалами по авиационной метеорологии и подборкой полезных ссылок на эту тему.

Сайт Метеоцентр.Азия посвящён разработке технологий оптимизации авиаметеорологического обслуживания, включая проектирование и перспективное создание нескольких автоматизированных авиаметеорологических систем:
- система выпуска высокодетальных прогностических карт явлений погоды для нижнего воздушного пространства по России и ближнему зарубежью;
- система верификации прогнозов TAF (выпускаемых синоптиками официальных АМСГ РФ и ближнего зарубежья) и AUTOTAF (выпускаемых сайтом Метеоцентр.Азия) - выявление ошибок, онлайн-сопоставление с фактической погодой METAR, автоматическое внесение коррективов в прогнозы при резком отклонении фактической погоды от прогноза, подсчёт оправдываемости прогнозов по элементам и в целом;
- система обработки, анализа и отображения авиаметеорологической информации для применения провайдерами метеорологической информации.

Рекомендуем: Цена пластиковые окна расчет стоимости окон cmkbadpat окна.

Погода в Жердевке - сегодня

Время (UTC), дата Ветер
(°,м/с) 
Видим.   Явления Облачность Т
(°С)
Тd
(°С)
f(%) Тe
(°С)
Pmin
(гПа)
dP
(гПа)
Po
(мм)
O2
(г/м3)
Тmin Tmax R s Состояние
почвы
03 25.06.17 190 (Ю) 10 км    3/0 верхняя 
[Ci sp]
+11.6 +10 90 +14  1009.9  0.4  744  286  +8.7         
06 25.06.17 230 (ЮЗ) 20000 м    6/0 средняя 
[Ac trans]
+18.8 +12.4 66 +25  1010.2  0.8  745  278           
09 25.06.17 280 (З) 20000 м    8/6 600 м верхняя 
[Cu med, cong|Ci fib]
+21.8 +8.4 42 +22  1010.2  0.1  745  277           
12 25.06.17 270 (З) 20000 м    9/6 600 м кучево-дожд., средняя 
[Cb cap|Ac trans]
+21.6 +11 51 +24  1010.5  0.3  745  276           
15 25.06.17 250 (З) 20000 м    6/3 600 м кучево-дожд., средняя 
[Cb cap|Ac trans]
+20.8 +11.9 57 +25  1010.1  -0.4  745  277    +22.9       
18 25.06.17 тихо ()   20000 м    5/0 средняя 
[Ac lent]
+16.5 +12.7 78 +22  1011.2  0.9  746  281           
21 25.06.17 210 (ЮЗ) 20000 м    ясно 
+15.7 +13.5 87 +22  1011.6  0.3  746  281           
00 26.06.17 230 (ЮЗ) 10 км    ясно 
+14.1 +12.8 92 +20  1012.3  0.4  746  283           
03 26.06.17 230 (ЮЗ) 10 км    8/0 средняя, верхняя 
[Ac trans|Ci]
+15.7 +14.3 91 +25  1012.7  0.6  746  281  +13.9         
06 26.06.17 240 (ЮЗ) 20000 м    5/0 средняя 
[Ac As]
+21.1 +14.9 68 +30  1012.3  -0.1  746  276           
09 26.06.17 230 (ЮЗ) 20000 м    5/3 1000 м кучево-дожд., средняя 
[Cb cap|Ac As]
+24.8 +15.9 58 +35  1012  746  272           
12 26.06.17 240 (ЮЗ) 20000 м    8/5 600 м верхняя 
[Cu med, cong|Ci]
+26.5 +15 49 +35  1011.3  -0.6  746  271           
15 26.06.17 220 (ЮЗ) 20000 м    6/4 600 м кучево-дожд., средняя 
[Cb cap|Ac As]
+26.4 +15.1 50 +35  1010  -1.3  745  271    +27.3       
18 26.06.17 210 (ЮЗ) 20000 м    5/0 средняя 
[Ac As]
+22.9 +16.2 66 +34  1009.6  -0.6  745  273           
21 26.06.17 200 (Ю) 20000 м    ясно 
+21.5 +15.3 68 +31  1009.1  -0.6  744  275           
00 27.06.17 260 (З) 10 км  слаб. ливневой дождь  10/10 540 м кучево-дожд. 
[Cb cap]
+20.5 +15.5 73 +30  1009.2  0.1  744  276           
03 27.06.17 200 (Ю) 10 км  {ливн. осадки}  8/8 660 м кучево-дожд. 
[Cb cap]
+19.1 +17.1 88 +33  1008.8  -0.5  744  276  +18.9       
06 27.06.17 240 (ЮЗ) 20000 м  {ливн. осадки}  8/0 средняя 
[Ac trans]
+23.1 +17.5 71 +37  1008.5  -0.1  744  272           
09 27.06.17 250 (З) 20000 м    10/10 630 м кучево-дожд. 
[Cb cap]
+23.8 +18.8 74 +40  1009.5  1.1  745  272           
12 27.06.17 280 (З) 20000 м    8/5 1000 м средняя 
[Cu med, cong|Ac trans]
+26.1 +17.4 59 +39  1009.2  -0.2  744  270           
15 27.06.17 250 (З) 20000 м    8/3 600 м кучево-дожд., средняя 
[Cb cap|Ac trans]
+24.6 +15.8 58 +35  1009.2  -0.1  744  272    +26.5       
18 27.06.17 240 (ЮЗ) 20000 м    8/0 средняя, верхняя 
[Ac trans|Ci fib]
+19.9 +16.9 83 +33  1009.9  0.5  745  276           
21 27.06.17 300 (СЗ) 10 км    3/0 средняя 
[Ac trans]
+17.9 +16 89 +30  1010.6  0.5  745  278           
00 28.06.17 300 (СЗ) 10 км    8/0 средняя 
[Ac trans]
+16.6 +15.1 91 +26  1011.5  0.9  746  280           
03 28.06.17 320 (СЗ) 4000 м  дымка  4/0 средняя 
[Ac trans]
+17.2 +15.5 90 +28  1012.8  1.2  747  280  +15.9         
Время (UTC), дата Ветер
(°,м/с) 
Видим.   Явления Облачность Т
(°С)
Тd
(°С)
f(%) Тe
(°С)
Pmin
(гПа)
dP
(гПа)
Po
(мм)
O2
(г/м3)
Тmin Tmax R s Состояние
почвы

Для получения пояснительной информации подведите курсор к названию столбца.

ПОГОДА в Жердевке - архив

Всё, что Вы хотите узнать о погоде в Жердевке - удобно и подробно!

Выберите нужную дату (начиная с 1 января 2015* года) и нажмите кнопку "Найти".
Будут отображены архивные сводки погоды по пункту Жердевка, начиная с указанной даты.


Отображать данные в формате CSV (для использования в таблицах Excel)


Внимание! Наш архив погоды предназначен исключительно для личного некоммерческого использования в познавательных целях. Если Вам необходимы официальные справки о состоянии погоды (для производственных, юридических, коммерческих и т.п. целей), обращайтесь в органы Росгидромета.

*Примечание: данная дата относится к архиву по метеостанциям СССР (Россия, СНГ, Балтия).
Архив по метеостанциям Зарубежной Европы и Азии (кроме Китая) хранится 10 дней, по другим регионам земного шара (Китай, Африка, Америка, Австралия, Океания) - 1 день.

Жердевка - район местоположения метеостанции


Название, широта, долгота, высота метеостанции:
Жердевка 51.8°ш. 41.5°д. 147 м над ур. моря [Российская Федерация]

Дополнительная информация

В oтличие oт бoльшинства пoгoдных сайтoв мы публикуем пoдрoбную метеoинфoрмацию в детальнoм прoфессиoнальнoм фoрмате.

Характеристики температуры и влажнoсти вoздуха измеряются на высoте 2 м в тени вдали oт зданий и деревьев.
Скoрoсть ветра измеряется на высoте 10 м (на урoвне рoста челoвека скoрoсть ветра ниже в 1.5-2 раза). Если метеoстанция нахoдится в гoрoде или в лесу, тo скoрoсть ветра занижена на 2-4 м/с пo сравнению с oткрытым местoм. Скoрoсть ветра над акватoриями крупных рек и oзёр, а также на вершинах хoлмoв на 2-5 м/с выше, чем в oбычных услoвиях.
Атмoсфернoе давление в разных тoчках местнoсти мoжет значительнo oтличаться oт давления на метеoстанции, в зависимoсти oт услoвий рельефа (при пoдъёме на 10 м давление пoнижается примернo на 1 мм рт.ст.).